Lid_Strength_Index
-2 -2 -2 -2 -1 -1 -1 -1 -1 -2 -1 -1 -1 -1 -1 -1 -1 0 4 1 0 -2 -1 1 2 3 3 4 4 7 11 13 12 12 11 10 11 10 8 7 6 5 6 4 2
-2 -2 -2 -2 -2 -2 -1 -2 -2 -2 -2 -1 -1 -2 -1 -1 1 3 -1 -2 -2 -2 2 3 5 4 6 6 6 8 11 11 9 10 11 10 11 10 8 7 7 6 4 3 2
-1 -2 -2 -2 -2 -2 -2 -2 -1 -2 -2 -1 -1 -2 -1 -0 4 4 -2 -2 -2 -1 1 2 3 4 7 6 7 9 11 10 9 9 10 10 11 10 9 9 7 7 6 4 4
-1 -1 -2 -2 -2 -2 -2 -2 -2 -2 -2 -1 -2 -2 -1 1 11 3 -2 -2 -2 -0 1 3 4 7 9 9 7 10 8 8 8 7 10 11 10 10 9 8 7 6 4 4 4
-1 -1 -1 -1 -2 -2 -2 -2 -2 -2 -2 -2 -2 -2 1 5 5 1 -1 -1 -0 1 3 4 6 7 9 8 8 9 8 7 6 7 8 11 11 11 10 8 7 7 4 4 4
-1 -1 -1 -1 -1 -2 -2 -2 -2 -2 -2 -2 -2 -1 4 9 1 1 0 0 1 2 4 4 5 5 7 8 9 8 8 8 7 7 7 9 12 12 11 8 6 6 5 4 4
-1 -1 -1 -1 -1 -1 -1 -2 -2 -2 -2 -2 -2 1 4 6 1 1 0 1 1 2 4 3 4 5 6 9 6 7 10 9 9 8 9 10 12 13 11 7 8 6 5 5 4
-1 -1 -1 -1 -1 -1 -1 -2 -1 -1 -2 -2 -1 2 6 2 2 2 2 1 1 2 3 3 3 5 6 6 8 10 10 13 9 8 8 11 13 11 11 8 8 7 6 5 5
-1 -1 -1 -1 -1 -1 -1 -1 -1 -2 -2 -2 2 4 8 1 3 3 2 3 2 3 2 2 3 6 6 11 13 11 15 14 12 9 10 12 13 11 11 9 9 8 6 6 5
-1 -1 -1 1 -1 -1 -1 -1 -2 -1 -0 0 1 7 7 7 4 2 2 2 4 4 5 6 7 10 10 12 16 15 14 14 14 10 10 11 11 9 10 11 10 10 8 6 6
-1 -1 -1 -0 -1 -1 -0 1 4 5 3 6 7 8 7 5 2 3 2 4 4 6 10 8 11 13 11 10 11 11 13 13 11 10 11 11 11 10 10 11 12 12 10 8 6
-1 -1 -1 0 -1 -1 1 5 5 5 8 4 5 5 5 4 7 5 2 7 8 11 9 11 13 10 9 9 11 12 13 14 11 9 11 11 12 10 10 11 10 10 11 11 9
-1 -1 -1 -1 -1 0 3 4 3 2 8 7 5 5 5 5 7 7 4 6 9 11 11 13 11 8 9 11 12 12 14 13 13 11 11 13 13 12 11 11 10 10 9 9 10
-1 -1 -1 -1 3 2 4 3 3 3 12 11 8 6 5 5 9 4 4 6 9 11 10 11 8 10 11 12 11 15 10 11 12 13 17 11 18 14 12 11 10 9 10 9 9
-1 -1 -1 -1 3 4 3 3 4 5 20 10 8 3 5 7 8 7 4 7 10 11 10 12 11 11 12 11 10 13 10 11 12 13 14 14 17 14 12 12 11 9 9 8 8
-1 -1 -1 1 1 1 2 3 5 14 19 12 8 9 9 8 8 7 7 6 6 10 9 11 9 10 10 9 9 9 11 12 12 14 19 14 15 15 13 13 10 9 8 8 8
-0 -1 0 0 4 0 3 5 14 18 14 13 12 10 10 11 10 9 10 11 12 15 15 11 11 9 8 11 9 11 13 19 20 20 20 14 16 14 13 12 10 9 8 7 8
-0 -0 0 1 -0 2 4 10 18 17 18 12 11 10 12 11 11 10 11 13 9 12 14 15 16 11 9 11 13 13 13 18 22 22 18 14 18 14 11 9 11 10 8 9 10
-0 1 2 1 -0 1 8 15 16 16 16 13 12 13 13 11 11 11 12 12 10 10 14 15 14 10 9 9 10 13 15 11 16 21 19 16 14 13 12 12 11 9 12 11 10
2 3 4 0 1 3 11 13 13 13 11 11 15 12 15 13 13 13 13 11 12 9 9 12 16 11 10 10 9 11 10 16 16 21 22 18 16 15 14 11 11 11 10 9 10
3 7 3 0 1 8 13 13 14 12 10 13 14 14 13 13 13 13 13 12 10 10 9 11 13 14 12 13 13 12 14 13 13 15 19 20 16 13 11 11 10 9 8 8 8
5 10 3 1 10 10 12 14 11 12 12 12 11 12 13 12 13 14 15 13 10 8 12 10 12 17 14 10 10 11 15 13 17 18 16 15 15 13 10 9 9 9 8 7 8
8 9 2 3 13 12 12 13 12 12 12 12 13 11 11 12 14 13 12 9 9 9 11 10 13 21 18 14 10 12 13 14 12 13 17 19 16 12 12 12 11 10 10 10 10
7 11 9 6 9 10 13 13 14 12 13 12 12 11 11 12 12 13 12 9 8 9 7 7 12 16 18 17 12 13 12 12 14 17 16 16 14 11 13 13 12 12 11 11 11
8 11 11 12 11 11 11 12 14 14 13 12 13 12 12 13 14 14 11 11 10 8 9 9 14 14 12 12 11 12 13 13 14 14 17 14 14 11 9 11 12 11 11 12 11
9 11 9 11 10 11 11 13 13 14 13 14 13 13 13 13 13 14 13 13 12 11 10 9 15 13 14 12 13 14 13 14 13 14 14 13 13 8 7 10 10 9 11 12 11
8 9 10 10 11 12 18 13 12 12 12 12 12 12 13 13 11 11 10 10 10 11 12 12 16 19 18 14 14 16 16 15 14 12 13 16 12 8 8 8 9 9 10 10 10